Latest Weather Observations for Cooma Airport

IDN60801

Issued at 6:05 pm EST Friday 29 August 2014 (issued every 30 minutes, with the page automatically refreshed every 10 minutes)

About weather observations | Map of weather stations | Latest weather observations for NSW | Other Formats
Station Details ID: 070217 Name: COOMA AIRPORT AWS Lat: -36.29 Lon: 148.97 Height: 930.0 m
Data from the previous 72 hours. | See also: Recent months for locations in New South Wales
Date/Time
EST
Temp
°C
App
Temp
°C
Dew
Point
Rel
Hum
%
Delta-T
°C
Wind Press
QNH
hPa
Press
MSL
hPa
Rain
since 9 am
mm
Dir
 
Spd
km/h
Gust
km/h
Spd
kts
Gust
kts
29/06:00pm 6.6 4.0 4.1 84 1.1 S 7 9 4 5 1027.0 1028.5 0.0
29/05:30pm 8.4 5.1 4.6 77 1.8 S 11 15 6 8 1026.8 - 0.0
29/05:00pm 10.3 6.5 3.8 64 3.0 S 13 17 7 9 1026.6 - 0.0
29/04:30pm 10.5 5.6 4.2 65 3.0 S 19 20 10 11 1026.4 - 0.0
29/04:00pm 11.7 5.9 4.4 61 3.5 S 24 30 13 16 1026.3 - 0.0
29/03:30pm 11.6 5.9 2.9 55 4.0 S 22 28 12 15 1026.2 - 0.0
29/03:00pm 11.8 6.5 2.8 54 4.1 S 20 30 11 16 1026.2 1027.6 0.0
29/02:30pm 12.0 7.7 3.3 55 4.1 S 15 26 8 14 1026.3 - 0.0
29/02:00pm 12.0 6.8 2.5 52 4.4 S 19 30 10 16 1026.6 - 0.0
29/01:30pm 11.8 6.7 3.3 56 4.0 S 19 26 10 14 1026.7 - 0.0
29/01:00pm 11.5 6.4 0.9 48 4.7 SSW 17 22 9 12 1026.9 - 0.0
29/12:30pm 10.6 5.7 1.7 54 4.0 S 17 26 9 14 1027.3 - 0.0
29/12:00pm 10.5 6.5 4.9 68 2.7 SSW 15 24 8 13 1027.8 1029.3 0.0
29/11:30am 9.5 5.1 2.8 63 3.0 SSW 15 24 8 13 1028.0 - 0.0
29/11:00am 9.1 6.1 4.1 71 2.3 SW 9 15 5 8 1028.3 - 0.0
29/10:30am 8.3 4.1 3.8 73 2.1 S 15 20 8 11 1028.5 - 0.0
29/10:00am 7.5 4.0 3.6 76 1.8 S 11 15 6 8 1028.5 - 0.0
29/09:30am 6.5 3.4 3.7 82 1.3 SSW 9 13 5 7 1028.7 - 0.0
29/09:00am 4.6 2.5 3.9 95 0.3 S 4 7 2 4 1028.8 1030.3 0.2
29/08:50am 4.1 2.8 4.0 99 0.0 CALM 0 0 0 0 1028.9 - 0.2
29/08:40am 3.3 1.8 3.2 99 0.0 CALM 0 0 0 0 1028.9 - 0.2
29/08:30am 2.8 1.2 2.7 99 0.0 CALM 0 6 0 3 1028.8 - 0.2
29/08:00am 1.1 -1.9 1.0 99 0.0 NNE 6 7 3 4 1028.7 - 0.2
29/07:30am 1.1 -0.7 1.0 99 0.0 CALM 0 0 0 0 1028.5 - 0.2
29/07:00am 0.9 -1.0 0.8 99 0.0 CALM 0 0 0 0 1028.1 - 0.2
29/06:30am 1.6 -0.5 1.5 99 0.0 SSW 2 6 1 3 1027.9 - 0.2
29/06:00am 2.4 0.0 2.3 99 0.0 SW 4 7 2 4 1027.7 1029.2 0.2
29/05:30am 2.8 1.2 2.7 99 0.0 CALM 0 0 0 0 1027.4 - 0.2
29/05:00am 3.0 1.5 2.9 99 0.0 CALM 0 0 0 0 1027.4 - 0.2
29/04:30am 3.4 0.8 3.3 99 0.0 NNE 6 7 3 4 1027.4 - 0.2
29/04:00am 3.6 2.2 3.5 99 0.0 CALM 0 0 0 0 1027.3 - 0.2
29/03:30am 4.0 2.7 3.9 99 0.0 CALM 0 6 0 3 1027.3 - 0.2
29/03:00am 4.0 1.5 3.9 99 0.0 NNE 6 7 3 4 1027.4 1028.8 0.2
29/02:30am 3.7 1.9 3.6 99 0.0 NNW 2 6 1 3 1027.5 - 0.2
29/02:00am 4.4 2.0 4.3 99 0.0 NW 6 7 3 4 1027.6 - 0.2
29/01:39am 4.5 1.9 4.4 99 0.0 N 7 11 4 6 1027.8 - 0.2
29/01:30am 4.6 1.7 4.5 99 0.0 N 9 11 5 6 1027.9 - 0.2
29/01:00am 3.8 1.1 3.7 99 0.0 N 7 9 4 5 1028.3 - 0.2
29/12:30am 2.3 -0.7 2.2 99 0.0 N 7 9 4 5 1028.4 - 0.2
29/12:00am 1.9 -0.9 1.8 99 0.0 N 6 7 3 4 1028.4 1029.8 0.2
 
Date/Time
EST
Temp
°C
App
Temp
°C
Dew
Point
Rel
Hum
%
Delta-T
°C
Wind Press
QNH
hPa
Press
MSL
hPa
Rain
since 9 am
mm
Dir
 
Spd
km/h
Gust
km/h
Spd
kts
Gust
kts
28/11:30pm 2.4 -0.6 2.3 99 0.0 N 7 7 4 4 1028.6 - 0.2
28/11:05pm 1.4 -1.7 1.3 99 0.0 NNE 7 7 4 4 1028.6 - 0.2
28/11:01pm 1.9 -1.1 1.8 99 0.0 NNE 7 9 4 5 1028.6 - 0.2
28/11:00pm 1.6 -1.5 1.5 99 0.0 NNE 7 9 4 5 1028.6 - 0.2
28/10:30pm 2.2 -0.8 2.1 99 0.0 NNE 7 9 4 5 1028.7 - 0.2
28/10:00pm 1.3 -1.9 0.6 95 0.3 NNE 7 9 4 5 1028.8 - 0.2
28/09:30pm 1.8 -1.6 1.7 99 0.0 N 9 9 5 5 1028.8 - 0.2
28/09:00pm 2.7 -0.3 2.1 96 0.2 N 7 11 4 6 1028.8 1030.3 0.2
28/08:30pm 3.2 0.2 1.7 90 0.6 N 7 9 4 5 1028.7 - 0.2
28/08:00pm 5.0 1.7 4.7 98 0.1 N 11 13 6 7 1028.5 - 0.2
28/07:30pm 4.7 1.5 3.2 90 0.7 N 9 11 5 6 1028.4 - 0.2
28/07:00pm 5.4 1.9 3.4 87 0.9 NNE 11 13 6 7 1028.1 - 0.2
28/06:30pm 4.8 1.9 1.5 79 1.4 SSE 6 13 3 7 1028.0 - 0.2
28/06:00pm 6.5 4.8 2.0 73 1.9 CALM 0 0 0 0 1027.9 1029.4 0.2
28/05:30pm 9.8 8.3 2.9 62 3.1 CALM 0 0 0 0 1027.6 - 0.2
28/05:00pm 11.8 10.3 3.1 55 4.0 CALM 0 0 0 0 1027.4 - 0.2
28/04:30pm 11.4 9.0 1.9 52 4.3 SSW 4 9 2 5 1027.3 - 0.2
28/04:00pm 11.9 9.4 1.3 48 4.7 NNW 4 9 2 5 1027.3 - 0.2
28/03:30pm 11.9 8.9 1.8 50 4.6 NNW 7 13 4 7 1027.3 - 0.2
28/03:00pm 12.3 10.3 2.5 51 4.5 N 2 9 1 5 1027.3 1028.7 0.2
28/02:30pm 11.4 9.3 1.9 52 4.3 NNW 2 7 1 4 1027.5 - 0.2
28/02:00pm 11.0 8.7 2.6 56 3.8 SSE 4 11 2 6 1027.7 - 0.2
28/01:30pm 10.7 7.6 3.5 61 3.3 NE 9 15 5 8 1027.7 - 0.2
28/01:00pm 10.1 7.8 2.9 61 3.3 NNE 4 11 2 6 1028.0 - 0.2
28/12:30pm 10.4 6.4 3.0 60 3.4 NNE 13 19 7 10 1028.5 - 0.2
28/12:00pm 10.2 6.8 3.9 65 2.9 N 11 22 6 12 1028.8 1030.3 0.0
28/11:30am 9.6 6.3 2.2 60 3.3 ENE 9 15 5 8 1029.2 - 0.0
28/11:00am 8.4 6.5 2.8 68 2.5 SSE 2 7 1 4 1029.7 - 0.0
28/10:30am 7.8 5.0 3.3 73 2.0 SSW 7 11 4 6 1029.8 - 0.0
28/10:00am 6.5 3.3 3.1 79 1.5 SSW 9 13 5 7 1030.0 - 0.0
28/09:30am 5.6 2.5 3.6 87 0.9 SSW 9 11 5 6 1030.0 - 0.0
28/09:00am 4.0 0.8 3.3 95 0.3 S 9 11 5 6 1030.1 1031.6 0.2
28/08:30am 2.6 -0.7 2.5 99 0.0 SSW 9 11 5 6 1029.9 - 0.2
28/08:00am 1.5 -1.6 1.4 99 0.0 SSW 7 9 4 5 1029.8 - 0.2
28/07:30am 0.6 -2.4 0.5 99 0.0 W 6 7 3 4 1029.6 - 0.2
28/07:00am -0.8 -4.1 -0.9 99 0.0 WSW 6 7 3 4 1029.2 - 0.2
28/06:56am -1.1 -4.6 -1.2 99 0.0 WSW 7 9 4 5 1029.2 - 0.2
28/06:44am -1.7 -5.3 -1.8 99 0.0 WSW 7 9 4 5 1029.2 - 0.2
28/06:30am -1.9 -5.5 -2.0 99 -0.1 WSW 7 9 4 5 1029.1 - 0.2
28/06:00am -1.3 -5.2 -1.4 99 0.0 WSW 9 11 5 6 1029.0 1030.5 0.2
28/05:30am -1.0 -4.8 -1.1 99 0.0 SSW 9 11 5 6 1028.7 - 0.2
28/05:00am -1.0 -5.2 -1.1 99 0.0 S 11 13 6 7 1028.3 - 0.2
28/04:30am -2.6 -5.7 -2.7 99 -0.1 SW 4 7 2 4 1028.1 - 0.2
28/04:00am -2.5 -4.8 -2.6 99 -0.1 CALM 0 0 0 0 1028.0 - 0.2
28/03:30am -2.0 -4.3 -2.1 99 -0.1 CALM 0 0 0 0 1028.1 - 0.2
28/03:00am -1.9 -4.2 -2.0 99 -0.1 CALM 0 0 0 0 1028.1 1029.6 0.2
28/02:32am -0.7 -2.8 -0.8 99 0.0 CALM 0 0 0 0 1028.3 - 0.2
28/02:30am -0.8 -2.9 -0.9 99 0.0 CALM 0 0 0 0 1028.4 - 0.2
28/02:28am -1.2 -3.4 -1.3 99 0.0 CALM 0 0 0 0 1028.4 - 0.2
28/02:00am -0.8 -2.9 -0.9 99 0.0 CALM 0 0 0 0 1028.6 - 0.2
28/01:30am 0.3 -3.0 0.2 99 0.0 W 7 9 4 5 1028.8 - 0.2
28/01:00am -0.5 -3.7 -0.6 99 0.0 SW 6 7 3 4 1028.9 - 0.2
28/12:30am -1.2 -4.5 -1.3 99 0.0 SSE 6 9 3 5 1029.0 - 0.2
28/12:00am -0.7 -2.8 -0.8 99 0.0 CALM 0 0 0 0 1028.9 1030.4 0.2
 
Date/Time
EST
Temp
°C
App
Temp
°C
Dew
Point
Rel
Hum
%
Delta-T
°C
Wind Press
QNH
hPa
Press
MSL
hPa
Rain
since 9 am
mm
Dir
 
Spd
km/h
Gust
km/h
Spd
kts
Gust
kts
27/11:30pm -0.3 -2.3 -0.4 99 0.0 CALM 0 7 0 4 1028.9 - 0.2
27/11:00pm 0.2 -1.8 0.1 99 0.0 CALM 0 0 0 0 1029.0 - 0.2
27/10:30pm 0.9 -1.0 0.8 99 0.0 CALM 0 0 0 0 1029.0 - 0.2
27/10:00pm 1.0 -1.2 0.9 99 0.0 SSE 2 6 1 3 1029.0 - 0.2
27/09:30pm 2.7 -0.2 2.6 99 0.0 N 7 11 4 6 1028.9 - 0.2
27/09:00pm 2.1 -0.9 2.0 99 0.0 NNE 7 9 4 5 1028.9 1030.4 0.2
27/08:30pm 2.6 -0.4 2.0 96 0.2 NNE 7 7 4 4 1028.8 - 0.2
27/08:00pm 2.3 -0.8 1.1 92 0.5 N 7 9 4 5 1028.7 - 0.2
27/07:30pm 4.3 1.5 3.0 91 0.6 N 7 9 4 5 1028.5 - 0.2
27/07:00pm 3.8 0.0 2.0 88 0.8 NNE 11 13 6 7 1028.3 - 0.2
27/06:30pm 5.2 1.5 2.6 83 1.1 NE 11 13 6 7 1028.1 - 0.2
27/06:00pm 6.4 2.8 3.0 79 1.5 NE 11 13 6 7 1028.0 1029.5 0.2
27/05:30pm 7.8 4.2 2.9 71 2.2 NE 11 15 6 8 1027.8 - 0.2
27/05:00pm 8.5 4.2 3.1 69 2.4 E 15 20 8 11 1027.5 - 0.2
27/04:30pm 9.4 4.3 4.2 70 2.4 E 20 24 11 13 1027.3 - 0.2
27/04:00pm 10.8 7.6 0.8 50 4.4 ESE 7 17 4 9 1027.0 - 0.2
27/03:30pm 10.8 6.3 2.1 55 3.9 ESE 15 20 8 11 1027.0 - 0.2
27/03:00pm 10.8 6.6 1.9 54 4.0 SSE 13 19 7 10 1027.0 1028.5 0.2
27/02:30pm 10.9 6.5 0.3 48 4.6 E 13 22 7 12 1027.3 - 0.2
27/02:00pm 11.1 7.5 2.7 56 3.8 E 11 17 6 9 1027.3 - 0.0
27/01:30pm 9.6 5.8 2.0 59 3.4 ESE 11 15 6 8 1027.4 - 0.0
27/01:00pm 9.5 6.1 1.9 59 3.4 S 9 17 5 9 1027.6 - 0.0
27/12:30pm 10.3 5.7 1.7 55 3.8 E 15 20 8 11 1027.8 - 0.0
27/12:00pm 8.8 5.4 4.0 72 2.2 S 11 20 6 11 1028.3 1029.7 0.0
27/11:30am 8.9 5.1 2.0 62 3.0 SSE 11 19 6 10 1028.6 - 0.0
27/11:00am 8.6 6.0 4.0 73 2.1 SW 7 11 4 6 1028.7 - 0.0
27/10:30am 6.7 3.1 5.0 89 0.8 S 13 17 7 9 1028.9 - 0.0
27/10:00am 6.2 3.5 5.5 95 0.3 SW 9 13 5 7 1028.9 - 0.0
27/09:33am 5.1 1.9 5.0 99 0.0 SW 11 13 6 7 1029.0 - 0.0
27/09:30am 5.3 2.1 5.2 99 0.0 SW 11 13 6 7 1029.0 - 0.0
27/09:09am 4.3 0.9 4.2 99 0.0 S 11 13 6 7 1029.1 - 0.0
27/09:05am 4.3 1.3 4.2 99 0.0 S 9 13 5 7 1029.0 - 0.0
27/09:02am 4.6 1.7 4.5 99 0.0 S 9 11 5 6 1029.1 - 0.0
27/09:00am 4.5 1.6 4.4 99 0.0 SSW 9 11 5 6 1029.1 1030.6 1.4
27/08:30am 2.8 -0.5 2.7 99 0.0 S 9 11 5 6 1028.9 - 1.4
27/08:00am 2.4 -0.6 2.3 99 0.0 S 7 9 4 5 1028.7 - 1.4
27/07:30am 1.1 -1.9 1.0 99 0.0 S 6 7 3 4 1028.5 - 1.4
27/07:00am 0.4 -1.5 0.3 99 0.0 CALM 0 0 0 0 1028.1 - 1.4
27/06:30am 0.6 -1.3 0.5 99 0.0 CALM 0 0 0 0 1027.9 - 1.4
27/06:00am 1.7 -0.8 1.6 99 0.0 S 4 6 2 3 1027.7 1029.2 1.4
27/05:30am 1.7 -0.4 1.6 99 0.0 WSW 2 6 1 3 1027.7 - 1.4
27/05:00am 1.9 -1.5 1.8 99 0.0 WSW 9 11 5 6 1027.8 - 1.4
27/04:30am 2.6 -1.1 2.5 99 0.0 SSW 11 11 6 6 1027.8 - 1.4
27/04:00am 1.8 -0.3 1.7 99 0.0 W 2 6 1 3 1027.7 - 1.4
27/03:30am 2.0 -0.8 1.9 99 0.0 W 6 9 3 5 1027.7 - 1.4
27/03:00am 2.4 -0.4 2.3 99 0.0 SSW 6 7 3 4 1027.9 1029.4 1.4
27/02:30am 2.3 -0.5 2.2 99 0.0 SSW 6 7 3 4 1028.0 - 1.2
27/02:00am 2.9 0.6 2.8 99 0.0 SSW 4 6 2 3 1028.1 - 1.2
27/01:59am 2.9 0.6 2.8 99 0.0 SSW 4 6 2 3 1028.1 - 1.2
27/01:30am 4.4 3.1 4.3 99 0.0 CALM 0 0 0 0 1028.3 - 1.2
27/01:20am 4.7 3.5 4.6 99 0.0 CALM 0 0 0 0 1028.4 - 1.2
27/01:02am 5.2 4.1 5.1 99 0.0 CALM 0 0 0 0 1028.4 - 1.2
27/01:00am 5.2 4.1 5.1 99 0.0 CALM 0 0 0 0 1028.4 - 1.2
27/12:43am 5.4 4.3 5.3 99 0.0 CALM 0 0 0 0 1028.5 - 1.2
27/12:30am 5.5 4.5 5.4 99 0.0 CALM 0 0 0 0 1028.5 - 1.2
27/12:00am 5.5 4.5 5.4 99 0.0 CALM 0 0 0 0 1028.6 1030.1 1.0
 
Date/Time
EST
Temp
°C
App
Temp
°C
Dew
Point
Rel
Hum
%
Delta-T
°C
Wind Press
QNH
hPa
Press
MSL
hPa
Rain
since 9 am
mm
Dir
 
Spd
km/h
Gust
km/h
Spd
kts
Gust
kts
26/11:35pm 5.4 4.3 5.3 99 0.0 CALM 0 0 0 0 1028.6 - 0.8
26/11:30pm 5.3 4.2 5.2 99 0.0 CALM 0 0 0 0 1028.6 - 0.8
26/11:29pm 5.2 4.1 5.1 99 0.0 CALM 0 0 0 0 1028.6 - 0.8
26/11:00pm 5.2 2.8 5.1 99 0.0 SW 7 9 4 5 1028.5 - 0.8
26/10:39pm 4.5 2.1 4.4 99 0.0 SSW 6 7 3 4 1028.6 - 0.8
26/10:30pm 4.6 2.1 4.5 99 0.0 SSW 7 9 4 5 1028.6 - 0.8
26/10:08pm 3.7 0.6 3.6 99 0.0 S 9 11 5 6 1028.7 - 0.8
26/10:00pm 3.6 1.0 3.2 97 0.2 S 6 9 3 5 1028.7 - 0.8
26/09:30pm 6.3 5.2 5.3 93 0.5 CALM 0 0 0 0 1028.7 - 0.8
26/09:11pm 6.8 5.1 5.9 94 0.4 E 4 7 2 4 1028.7 - 0.8
26/09:00pm 7.0 5.0 6.1 94 0.4 ESE 6 7 3 4 1028.8 1030.3 0.8
26/08:30pm 6.9 5.6 6.2 95 0.3 E 2 6 1 3 1028.7 - 0.8
26/08:20pm 6.9 6.0 6.2 95 0.3 CALM 0 0 0 0 1028.7 - 0.8
26/08:00pm 6.7 5.8 6.0 95 0.3 CALM 0 0 0 0 1028.6 - 0.8
26/07:30pm 6.9 4.8 5.8 93 0.5 E 6 9 3 5 1028.4 - 0.8
26/07:00pm 7.3 4.7 5.9 91 0.7 E 9 13 5 7 1028.1 - 0.8
26/06:30pm 7.4 3.2 5.9 90 0.7 E 17 22 9 12 1027.7 - 0.8

Other Formats:

Comma delimited format used in spreadsheet applications
http://www.bom.gov.au/fwo/IDN60801/IDN60801.94921.axf

JavaScript Object Notation format (JSON) in row-major order
http://www.bom.gov.au/fwo/IDN60801/IDN60801.94921.json